Wind_Speed
15 16 18 19 19 18 18 17 17 17 17 17 17 17 16 16 17 17 17 17 17 17 17 17 16 15 14 13 12 12 11 10 10 8 6 7 5 4 3 2 3 3 3 3 6 10 11 14 18 16 14 13 13 10 7 5 1 2 6 10 10 8 11 8 7 9 8 9 8 7 4 4 10 11 10 8 5 6 6 3 3 4 4 4 4 2 6 7
15 17 18 18 18 17 16 16 16 16 15 15 14 14 14 14 14 15 15 15 15 16 16 16 16 15 14 13 13 12 11 10 9 3 3 5 4 5 4 3 3 3 4 3 6 12 12 17 19 16 15 14 13 10 8 6 1 3 3 6 9 8 10 9 7 6 7 9 5 5 5 4 9 8 5 3 4 4 1 4 7 8 6 5 4 3 3 2
16 17 17 17 16 15 15 15 15 15 14 13 12 12 12 12 11 11 12 12 13 14 15 15 15 15 14 14 13 12 11 10 7 6 6 5 4 5 5 4 4 4 6 6 7 11 12 17 19 15 14 14 12 8 6 5 1 3 1 4 9 7 10 11 8 6 7 9 5 5 3 3 7 4 5 3 2 3 5 7 9 10 7 6 5 3 1 2
16 16 16 15 14 14 15 15 15 14 13 11 10 10 9 9 8 7 8 8 9 11 12 13 14 14 14 14 13 13 12 11 8 8 9 8 3 4 5 5 6 6 8 8 7 11 14 15 14 11 10 11 11 10 8 4 1 2 3 5 8 5 8 10 6 6 5 5 5 6 3 5 7 7 9 8 6 7 7 8 10 9 8 7 6 2 2 3
14 14 14 13 13 14 15 15 14 13 11 10 9 8 7 6 5 5 5 6 8 9 10 12 12 13 14 14 14 13 13 12 10 10 11 9 7 6 6 7 7 7 8 8 9 14 15 12 11 9 8 9 11 13 8 4 2 2 3 5 6 4 6 7 3 2 3 4 6 3 4 8 7 7 11 9 8 11 10 11 11 10 11 9 7 4 4 4
13 13 13 12 13 15 15 14 13 12 10 8 7 6 5 4 5 5 6 6 7 8 9 10 11 12 13 13 14 15 14 11 8 9 10 10 8 7 8 8 7 8 8 9 14 17 13 10 10 7 7 7 9 11 6 7 4 3 4 4 5 3 5 6 2 2 4 5 5 2 5 7 4 6 9 9 10 13 13 14 13 11 12 12 10 6 6 7
11 12 12 12 14 15 15 14 13 11 9 7 5 4 4 5 5 6 7 7 7 8 8 8 9 9 11 12 14 15 14 12 8 7 8 10 9 8 9 7 7 8 9 12 17 15 11 9 8 6 8 7 7 7 3 4 4 2 4 2 2 3 5 6 2 4 6 3 2 2 5 3 4 7 8 9 11 13 14 15 14 11 11 12 12 9 6 6
11 11 12 13 14 14 14 13 12 10 7 5 4 3 4 5 6 7 8 9 8 7 6 6 5 7 8 11 13 13 14 14 11 8 9 12 11 9 8 6 7 8 9 13 15 11 9 8 5 4 6 5 3 5 3 4 5 2 5 3 3 5 6 7 4 5 6 5 3 2 5 2 4 7 8 11 13 13 14 14 13 11 9 10 11 11 9 6
10 11 12 13 13 14 13 12 10 9 6 4 3 3 4 5 7 8 9 10 9 7 5 3 1 3 6 9 10 11 12 13 13 11 12 14 13 11 8 7 7 8 9 11 13 10 7 3 2 3 3 1 2 4 4 5 5 3 4 5 6 6 5 8 9 9 8 6 5 4 5 5 6 6 8 13 14 15 15 13 11 9 8 9 10 10 9 8
10 11 12 12 13 13 12 11 9 7 4 3 2 3 4 5 7 9 10 11 10 8 6 4 3 3 5 6 6 8 9 10 12 13 16 16 15 13 8 7 7 8 11 12 13 7 3 2 3 3 3 4 4 6 6 5 4 2 1 6 7 5 6 9 11 12 9 6 4 5 7 7 5 5 9 14 14 14 14 13 11 7 5 6 8 8 7 6
10 10 11 12 12 12 11 10 8 6 4 2 2 3 4 5 7 10 11 11 11 9 8 8 8 7 8 8 6 6 7 8 12 14 17 18 17 13 9 8 7 9 13 15 12 7 8 5 1 4 5 6 7 7 6 2 1 3 2 9 10 6 8 10 10 12 12 9 4 3 9 7 5 8 12 14 13 13 13 13 11 6 5 5 5 7 8 8
9 10 11 11 11 11 10 10 8 5 3 2 2 3 4 5 7 9 10 11 12 12 12 11 11 10 9 8 6 6 6 9 12 14 16 17 16 13 12 11 8 9 15 16 13 10 13 8 3 5 6 8 8 3 6 6 2 4 7 12 14 10 9 10 11 13 11 10 7 4 11 9 7 10 11 11 12 11 10 11 9 5 5 5 6 6 8 8
9 9 10 10 10 10 10 9 7 5 3 2 2 2 3 5 7 9 10 10 12 13 14 13 12 12 9 7 8 10 8 9 12 12 14 13 12 12 12 11 10 11 15 15 10 13 16 9 5 9 9 9 5 1 6 5 2 7 11 12 13 12 11 10 13 13 10 10 10 4 9 10 8 9 9 7 10 10 8 8 5 3 4 6 8 6 7 7
8 9 9 9 9 9 9 8 6 4 2 2 2 2 2 4 6 8 10 11 12 13 13 13 13 14 13 11 11 13 12 12 14 13 13 13 12 13 12 11 9 10 14 12 7 12 14 7 8 10 9 7 5 4 4 2 2 7 11 10 11 12 12 13 14 14 13 14 11 5 7 13 8 8 6 2 10 12 10 7 4 2 3 5 8 7 7 6
8 8 8 8 8 9 9 7 5 4 2 1 1 1 2 3 5 8 11 13 14 14 13 13 13 15 16 14 13 14 16 16 17 18 18 16 15 14 13 10 8 8 11 10 7 9 8 7 11 11 9 7 5 5 3 0 2 6 10 12 13 12 10 12 14 16 16 19 15 6 9 15 6 6 3 5 11 13 12 11 7 1 1 3 6 6 5 5
7 7 7 7 7 8 8 6 5 3 2 1 1 0 2 3 4 7 9 11 13 14 14 13 13 14 14 14 15 16 19 21 21 22 22 21 20 20 18 15 11 10 10 9 10 10 9 9 11 9 8 6 4 3 4 3 4 7 11 13 12 12 10 13 14 15 12 14 14 7 8 16 9 7 4 7 11 12 12 11 9 5 3 2 1 3 3 3
6 6 6 6 6 6 7 6 4 3 1 1 0 1 1 3 4 5 6 7 9 12 13 13 13 12 11 11 14 17 19 22 23 25 25 25 26 25 25 21 16 14 14 14 14 13 11 9 7 6 5 5 4 3 7 7 6 6 9 14 16 15 13 17 17 15 11 9 9 3 5 14 11 8 5 6 9 9 11 10 7 6 6 6 5 4 5 6
6 6 5 5 5 5 6 5 4 3 1 1 1 1 1 2 3 5 5 5 6 7 10 12 11 9 8 7 9 13 14 18 22 25 26 26 27 26 26 22 16 14 15 14 13 11 9 6 4 1 2 3 3 4 8 8 5 4 3 9 16 19 18 17 17 15 11 10 8 5 6 11 11 9 5 4 6 7 10 9 7 6 6 7 8 7 8 9
5 5 4 4 4 4 5 5 4 3 2 2 2 3 2 2 3 4 5 5 5 6 7 9 9 10 9 7 8 13 14 16 20 23 25 26 26 24 23 21 15 12 12 11 9 6 4 3 3 4 1 1 2 2 5 5 6 5 8 11 11 23 22 17 14 10 8 10 9 7 6 9 11 9 5 3 2 6 8 8 8 7 6 7 9 10 10 11
5 4 4 3 3 4 4 4 4 3 2 2 2 3 5 5 4 3 4 5 3 4 6 7 8 10 10 8 9 14 13 16 19 20 23 24 23 20 18 18 14 10 9 8 5 2 2 4 3 4 2 0 2 5 5 6 7 7 12 6 16 27 21 15 10 8 7 7 9 9 8 10 12 10 5 3 1 5 5 5 6 6 5 5 6 8 9 10
4 4 3 3 3 3 3 3 2 2 2 2 2 5 7 5 4 3 3 4 3 3 5 7 9 10 10 8 8 12 12 16 20 20 21 21 19 16 13 13 10 7 7 5 2 1 5 8 5 3 4 1 2 6 9 7 7 10 13 7 23 23 19 14 8 10 7 3 11 14 11 13 13 12 8 6 2 4 3 2 3 4 5 4 3 4 6 7
4 3 3 2 2 3 3 3 1 2 3 2 2 5 7 4 3 3 2 2 3 4 6 8 11 10 11 8 7 12 15 16 19 21 21 19 18 15 12 9 4 4 3 2 4 5 9 9 5 1 2 2 3 6 6 5 7 12 11 14 22 18 15 11 6 9 7 4 13 18 14 15 15 13 9 8 6 2 2 1 1 3 4 2 2 2 3 5
5 3 2 2 2 2 3 4 2 2 3 1 3 5 7 5 4 3 2 3 4 5 8 10 11 10 10 7 6 9 12 15 15 14 15 16 15 12 9 7 2 2 2 6 7 10 11 2 4 2 2 2 3 3 4 5 8 16 17 19 18 13 9 6 4 6 10 6 10 18 18 17 16 13 10 10 11 6 2 2 1 3 4 2 2 1 2 4
5 4 3 2 2 1 2 3 3 2 1 1 3 4 5 5 5 4 3 3 5 8 11 12 11 10 6 3 6 9 8 12 13 8 9 12 13 11 7 5 1 4 2 3 8 12 8 7 9 4 3 2 4 3 6 5 8 16 14 12 10 8 5 4 5 5 10 5 11 20 19 15 15 13 13 13 13 10 6 3 2 3 2 2 3 1 1 1
6 5 3 2 2 1 1 2 3 2 2 2 1 2 3 3 4 4 3 2 5 9 12 13 11 9 5 4 6 9 8 8 12 9 6 6 9 8 6 5 5 6 4 8 13 13 10 8 4 1 2 1 4 3 3 3 5 8 8 8 5 3 1 1 2 6 13 15 19 19 10 9 14 15 16 15 14 12 9 6 3 2 2 2 3 3 2 2
7 6 4 3 2 2 1 1 3 3 0 1 1 1 1 1 3 4 2 2 3 9 11 11 9 9 10 8 8 11 10 7 10 9 3 2 6 5 6 7 8 9 8 9 7 7 10 9 2 1 2 2 3 2 0 2 1 3 5 7 4 1 2 1 1 4 12 14 17 20 10 10 16 17 17 16 15 14 13 11 7 4 2 2 2 2 2 2
7 6 5 3 2 2 2 1 1 2 1 0 1 1 1 1 2 3 2 3 2 9 11 11 10 9 12 10 9 11 10 8 8 8 3 2 5 7 9 8 8 8 5 5 5 7 7 9 5 2 3 2 1 1 1 2 2 1 3 6 4 1 4 3 2 1 3 4 13 23 18 12 19 22 19 18 17 16 17 15 10 8 5 2 1 1 1 3
8 7 6 4 3 2 3 2 1 0 0 1 1 2 2 2 3 3 2 1 2 9 10 12 12 10 13 13 10 9 6 7 9 9 6 3 5 9 9 8 8 6 3 4 5 4 5 10 9 7 6 2 1 2 4 6 6 5 6 6 4 5 6 6 5 5 7 6 12 25 21 9 16 24 21 20 22 20 20 17 12 11 9 5 3 2 3 4
8 7 6 6 4 2 2 3 3 2 1 1 2 2 1 3 5 4 2 1 4 10 8 12 14 11 15 15 11 9 7 7 9 8 6 4 6 10 8 6 7 5 3 2 3 4 6 8 7 7 7 6 5 5 7 7 4 3 4 4 5 6 7 9 9 12 11 9 10 20 23 10 10 24 27 24 24 24 23 18 12 12 11 7 6 6 6 6
8 8 7 6 5 3 2 3 4 4 2 2 4 3 2 4 5 4 2 1 3 7 8 12 14 12 16 16 13 13 11 9 7 8 7 3 5 10 8 7 7 4 3 5 6 6 9 10 7 7 7 9 10 7 5 2 1 2 5 5 5 6 8 9 10 13 9 8 10 11 20 17 8 22 33 27 20 18 19 18 15 14 12 9 9 9 9 9
9 8 8 7 5 4 3 3 5 5 4 5 5 5 4 5 6 5 3 2 2 6 10 14 15 14 12 11 13 15 14 13 10 9 8 4 6 9 10 10 8 4 6 10 9 8 10 10 7 8 8 10 11 8 6 6 1 4 7 5 5 7 6 5 4 8 5 5 6 8 11 20 12 19 28 25 21 15 14 16 15 13 10 9 10 10 11 12
9 8 8 7 6 5 4 4 5 6 7 7 5 5 5 5 7 8 5 3 3 5 9 13 16 17 12 8 11 13 13 16 16 15 11 7 7 9 11 14 11 7 8 10 11 11 13 13 11 9 7 9 10 6 8 6 1 4 6 6 6 6 5 4 1 3 3 6 7 11 6 16 13 16 19 21 25 22 15 15 14 11 9 9 11 11 12 14
9 8 8 8 7 6 5 5 6 7 8 7 5 6 7 5 6 11 10 3 4 7 6 12 14 14 11 8 10 14 14 16 17 17 14 10 8 8 9 13 11 10 10 9 9 10 11 12 12 10 7 9 8 6 8 3 2 4 5 5 3 3 3 1 3 2 3 8 9 8 5 8 7 12 14 18 25 23 17 16 14 11 9 10 13 13 14 15
9 8 8 8 7 7 7 7 7 8 9 9 8 7 9 8 4 7 7 4 10 11 8 12 13 12 13 9 9 13 16 16 17 17 17 15 12 11 12 12 11 13 14 11 10 11 11 11 12 11 8 9 10 9 5 3 3 3 5 5 4 1 1 2 3 1 2 7 11 7 3 4 3 6 9 16 22 21 18 16 13 12 12 14 15 15 15 15
10 9 8 8 8 8 8 8 8 9 10 11 11 10 12 11 5 2 0 6 10 8 4 12 13 12 15 11 8 11 14 16 17 18 20 17 10 10 12 13 13 15 17 14 8 10 14 14 14 12 9 8 9 8 1 7 4 3 3 4 3 1 1 2 2 3 4 6 7 2 3 3 4 4 6 13 19 20 18 16 16 15 16 16 16 16 14 13
10 9 8 9 9 9 8 9 9 10 11 12 14 15 15 13 9 3 3 8 11 8 2 13 14 10 12 12 11 12 13 13 15 21 24 19 11 11 12 12 13 15 17 15 7 7 10 13 13 11 11 11 8 5 5 8 4 5 5 3 2 2 2 2 2 3 2 3 1 3 7 8 7 5 5 11 17 20 18 17 18 18 17 17 16 15 13 12
9 9 9 9 10 9 9 9 9 10 12 13 16 16 15 14 12 6 6 9 10 8 2 6 9 8 8 9 10 11 13 13 14 20 23 20 17 18 16 15 17 19 19 17 10 10 11 12 15 14 13 14 10 6 7 5 4 2 5 2 3 4 5 5 3 1 2 1 1 5 11 14 12 9 10 14 18 21 19 18 19 19 19 18 16 13 10 10
9 8 9 10 9 9 9 9 10 11 12 15 18 17 15 14 12 8 8 9 9 10 7 2 3 5 4 5 6 6 11 14 19 20 20 19 16 15 15 15 15 17 20 20 12 11 13 12 16 17 12 13 13 8 7 2 3 1 2 1 2 2 3 3 2 1 1 0 2 4 11 16 17 16 18 22 23 23 21 20 20 20 19 18 14 11 10 11
8 8 9 9 9 9 9 10 12 12 12 15 18 17 14 13 12 7 6 7 9 11 9 5 4 4 4 6 6 7 8 13 21 20 18 17 13 11 14 13 11 14 20 22 15 13 14 11 12 14 12 12 14 12 9 6 5 4 4 3 3 1 2 3 3 3 3 2 2 2 5 11 19 21 20 22 24 25 23 22 22 21 19 17 14 12 11 14
7 8 9 10 9 8 8 10 12 13 13 15 17 16 12 12 11 5 2 4 9 12 11 10 10 9 8 8 6 6 7 7 15 18 18 17 12 12 15 15 15 16 17 19 16 12 12 10 9 11 11 9 7 5 7 8 9 10 8 6 7 2 2 4 6 5 4 2 2 3 2 9 17 21 19 18 20 24 24 24 24 21 18 16 15 14 15 17
7 9 11 11 10 9 8 9 11 12 14 15 15 16 13 12 13 8 1 4 7 9 12 13 14 15 13 10 7 5 7 6 7 11 15 17 15 13 16 17 19 19 16 16 14 11 10 10 10 11 11 9 5 3 1 5 10 12 10 9 10 6 4 4 6 7 6 3 3 4 3 8 13 17 17 16 17 20 22 21 20 18 17 16 16 17 19 19
8 10 11 11 11 9 9 11 11 11 13 13 14 15 14 14 16 11 4 4 6 8 10 11 12 15 13 9 7 7 7 7 6 5 5 13 18 17 15 17 19 20 17 15 13 12 10 9 11 11 10 10 6 1 1 5 9 11 10 10 11 12 12 10 7 7 6 4 3 3 3 7 9 11 13 14 16 18 19 19 18 17 17 17 19 21 21 19
9 11 12 12 12 9 8 10 10 10 11 10 11 13 13 14 16 11 6 7 8 10 10 8 8 11 11 8 6 7 7 5 4 3 3 8 16 14 12 16 18 19 18 15 13 13 11 9 11 12 11 12 12 7 4 6 8 10 10 10 11 14 15 13 10 9 7 5 5 4 3 7 10 10 11 13 17 19 20 20 20 19 19 20 22 23 21 18
9 13 14 13 13 12 10 9 8 9 9 8 10 11 12 14 15 10 8 10 9 10 9 7 7 8 9 10 8 8 8 4 1 4 4 6 10 11 12 16 18 17 15 13 13 12 10 9 10 9 6 9 12 10 7 7 9 10 8 8 9 12 11 11 12 10 7 7 8 5 4 9 11 10 12 16 21 22 23 24 24 23 23 23 23 23 20 17
9 13 16 17 18 15 10 7 7 8 10 11 11 11 12 12 12 10 11 11 11 12 11 10 9 7 8 9 8 7 9 8 3 4 5 5 7 10 10 12 13 11 10 9 10 10 8 8 10 9 6 5 8 10 11 11 11 11 10 10 10 10 11 13 15 12 10 11 13 12 11 14 12 10 13 18 22 26 28 28 28 27 26 25 24 23 19 17
10 14 18 20 18 13 8 6 6 9 11 11 11 10 10 9 8 10 14 13 12 13 13 14 13 9 7 8 7 5 7 9 6 5 6 4 6 7 7 8 9 8 7 6 6 7 7 8 11 13 13 14 14 15 16 15 14 13 11 11 12 10 12 16 17 16 16 17 19 20 19 19 17 16 17 19 23 28 31 32 32 30 28 27 25 21 17 17
13 16 18 18 15 14 14 12 10 11 11 10 10 9 9 10 8 6 10 13 13 13 13 15 15 13 10 8 7 6 6 8 8 7 5 4 6 8 9 11 11 8 7 7 6 6 8 10 13 15 16 18 18 17 17 15 15 15 14 14 16 15 17 19 19 19 20 19 19 21 22 22 21 19 19 21 24 28 31 33 32 30 28 26 23 18 16 18
15 17 17 17 16 16 19 18 15 15 13 11 11 10 9 11 8 4 5 8 10 10 11 13 15 16 13 9 9 8 7 8 8 8 7 5 6 9 13 13 10 6 5 6 7 7 7 8 11 14 17 18 17 16 17 17 17 18 19 19 20 21 22 22 20 18 18 19 20 20 22 24 23 21 20 21 22 26 29 31 30 28 27 25 21 18 19 21
16 16 16 18 18 18 21 21 17 16 15 13 11 9 9 11 11 8 7 7 8 8 9 10 11 13 15 14 13 12 11 10 10 9 9 6 5 11 14 13 10 6 3 4 5 4 5 6 7 11 16 19 19 18 18 18 19 21 22 21 20 23 25 23 20 18 18 20 21 21 21 24 22 20 21 21 22 25 28 30 29 27 26 23 21 20 21 22
16 16 17 20 20 19 22 21 17 16 14 12 11 9 8 10 11 11 11 11 9 6 6 8 7 8 12 15 14 14 14 14 13 12 11 8 7 11 13 11 10 9 6 4 4 5 6 6 6 9 13 15 17 19 19 18 18 20 22 21 19 19 21 22 22 22 23 23 22 20 21 23 23 21 20 19 21 24 28 29 29 27 25 23 22 21 22 22
16 17 18 22 22 21 22 20 18 17 13 11 13 11 10 10 9 11 14 14 12 7 5 8 9 10 13 15 15 15 16 16 16 16 16 14 12 12 11 8 7 10 10 8 6 5 5 5 7 11 12 13 13 14 15 18 19 22 24 23 19 17 20 23 24 24 25 25 25 23 22 23 23 21 18 15 15 21 27 28 27 25 24 23 22 21 22 21
17 18 20 23 23 22 21 20 19 18 15 13 15 14 12 13 11 10 12 14 15 12 7 8 9 12 15 16 15 15 15 16 16 17 17 18 16 15 14 10 7 7 8 7 6 5 5 6 9 11 13 14 13 12 14 15 16 18 20 19 17 16 17 19 22 24 25 25 23 21 21 21 19 17 16 13 11 15 21 24 24 23 23 23 22 20 19 18
Wind_Direction
307 308 312 314 314 313 311 308 305 301 297 293 290 288 286 284 282 279 277 274 272 270 268 265 262 258 253 251 248 247 248 249 250 253 257 250 238 208 213 215 181 164 163 154 132 120 114 127 132 128 110 92 81 58 54 68 139 100 21 7 8 34 71 94 101 79 78 93 86 75 71 77 105 113 110 125 117 101 100 67 358 349 345 23 65 45 15 16
311 313 315 316 316 315 314 312 309 306 302 299 296 294 290 287 284 281 279 276 273 270 267 263 260 256 251 248 243 244 241 244 246 203 176 205 166 160 186 181 157 153 150 118 136 136 123 127 131 118 96 81 66 43 33 31 219 179 344 20 48 64 76 61 52 57 80 91 83 77 74 84 105 105 95 159 178 134 231 318 331 343 2 20 13 332 352 20
315 317 318 319 320 320 320 318 315 312 309 307 304 300 296 293 290 287 284 281 276 270 266 261 257 252 248 244 239 239 234 237 222 162 183 205 135 147 169 164 149 128 122 100 125 144 129 120 117 102 84 71 57 39 31 32 131 166 177 65 54 73 77 49 51 71 86 93 86 81 60 33 75 54 13 6 286 295 299 320 339 358 25 36 18 340 313 149
319 321 322 325 326 326 326 324 321 317 315 314 311 306 304 304 301 298 294 286 278 270 265 259 254 249 243 239 234 232 229 228 211 190 213 227 208 184 166 154 144 117 112 97 103 135 135 119 101 85 70 56 37 14 1 1 244 155 126 63 40 77 70 48 74 82 83 97 79 77 42 22 44 21 9 7 355 350 343 348 354 19 41 43 43 49 126 144
324 326 328 331 332 332 331 328 324 321 320 318 315 315 317 322 323 320 312 299 288 275 268 259 252 246 240 235 230 226 226 226 220 212 215 223 227 209 179 160 141 121 115 97 103 126 129 112 83 63 45 39 23 13 24 63 150 153 82 56 64 76 43 54 103 59 65 84 84 76 38 62 61 29 20 8 18 29 22 6 6 39 56 52 60 88 95 109
330 332 334 336 336 336 334 330 326 324 323 322 323 328 339 349 348 343 333 318 304 288 277 266 255 246 237 231 226 223 222 224 221 213 213 216 213 189 168 156 142 130 117 113 124 124 116 98 79 59 32 27 17 14 47 90 128 156 75 72 83 44 25 64 98 100 88 77 94 61 33 63 33 24 33 18 28 30 25 17 14 40 52 48 58 78 81 78
335 336 337 339 339 338 336 332 328 326 326 329 337 348 3 11 3 357 348 335 322 306 290 275 261 246 234 224 222 218 216 218 198 183 199 197 185 171 159 151 149 138 125 131 134 122 104 86 70 52 22 1 2 15 39 89 127 145 80 97 80 48 61 79 109 115 93 75 108 348 357 349 344 39 53 37 34 25 24 22 16 30 40 38 48 53 50 52
339 339 339 340 340 340 338 334 332 329 332 342 355 13 24 24 12 5 358 351 342 328 310 289 265 240 225 213 215 212 209 210 192 172 176 177 172 168 160 153 154 147 141 142 140 126 106 80 47 25 8 347 14 57 86 124 154 114 76 126 125 99 94 99 149 157 125 112 116 26 15 1 28 54 51 43 40 29 27 26 21 29 30 19 24 32 43 61
343 341 340 340 341 342 340 336 334 333 339 356 11 34 33 26 19 15 10 4 1 355 349 328 262 208 204 201 206 204 203 204 198 187 173 173 171 160 146 144 154 156 152 144 142 131 105 83 349 331 337 258 149 95 95 111 143 112 80 133 122 115 132 134 156 166 152 130 120 88 63 77 67 49 46 47 38 27 25 26 30 30 24 1 359 14 39 68
345 342 340 340 341 344 342 339 337 336 346 360 16 35 25 23 24 25 22 17 18 23 34 50 88 126 159 166 174 183 191 198 199 192 178 174 168 159 147 144 148 150 144 132 135 139 151 209 283 263 200 207 178 133 116 85 111 150 150 163 145 139 166 156 156 166 180 178 132 81 80 96 75 41 54 54 34 21 16 20 32 32 18 352 354 1 6 34
345 342 340 340 343 348 346 343 340 340 349 355 11 19 16 26 32 35 34 31 36 45 58 70 80 91 110 114 122 148 166 187 195 191 182 179 178 181 181 171 161 148 143 137 142 167 183 182 207 182 188 212 198 162 158 135 119 234 212 164 173 186 171 166 166 171 178 173 164 84 93 95 57 47 56 53 32 17 8 11 23 22 3 332 335 345 343 356
344 342 341 341 346 353 350 348 344 342 352 350 1 10 18 34 39 44 43 44 51 60 69 76 79 84 96 95 99 126 148 175 182 186 185 185 191 195 191 184 179 163 157 160 170 174 161 153 165 204 220 204 201 206 185 175 149 207 178 157 174 190 173 174 179 176 175 169 187 151 103 87 46 57 62 51 25 15 10 12 19 5 338 298 293 317 331 342
344 342 342 344 351 358 355 354 348 344 352 343 356 6 19 38 46 52 54 56 61 66 71 76 77 78 78 71 85 109 128 149 156 170 177 178 180 179 181 186 187 179 175 179 184 161 147 148 204 224 223 195 196 218 164 158 131 187 182 169 177 185 178 180 179 180 199 190 199 208 105 98 75 77 82 55 7 7 22 20 21 347 307 263 265 287 311 326
343 341 345 348 356 4 2 360 355 350 347 338 355 352 18 45 54 63 69 68 67 68 70 70 71 71 68 69 86 102 114 125 131 141 149 152 157 161 167 178 184 179 185 196 184 151 147 163 196 200 200 194 201 194 174 148 157 189 201 213 219 210 188 180 182 191 201 184 196 258 112 121 116 106 107 1 335 353 21 21 10 297 270 239 250 272 292 297
342 342 346 351 2 10 8 8 5 357 351 338 337 344 42 57 66 82 85 79 73 70 70 69 68 67 65 70 84 98 110 116 120 125 127 131 140 147 148 152 163 166 177 186 160 142 150 173 178 175 178 187 195 205 234 355 181 213 224 232 230 221 193 171 184 197 191 175 195 253 118 131 142 136 154 311 328 349 19 27 23 19 240 216 239 271 284 272
340 342 347 355 7 14 14 17 17 11 1 341 317 23 67 74 92 104 100 91 79 71 71 69 68 67 62 71 87 98 107 113 119 121 124 128 130 131 125 121 135 149 149 141 127 128 140 152 159 162 170 176 186 230 278 274 243 237 236 241 231 212 174 147 167 186 185 173 192 243 138 142 149 158 203 331 348 355 19 30 34 57 71 78 274 308 326 313
339 340 347 359 9 16 19 23 31 36 21 3 29 30 78 108 120 122 117 106 87 76 75 73 73 69 60 70 95 104 108 115 122 125 129 131 129 125 117 110 113 123 121 118 118 119 128 140 148 164 176 181 196 249 288 272 247 243 236 242 240 217 168 136 145 167 189 193 181 207 155 149 151 177 219 343 357 359 19 31 42 59 65 59 41 27 23 19
337 337 345 1 11 16 22 28 38 56 77 95 91 73 90 141 153 147 141 124 97 90 89 83 75 65 54 62 102 117 117 122 127 129 130 129 126 123 116 110 105 111 115 115 119 117 121 131 120 158 186 187 213 249 272 274 271 265 265 272 249 214 182 155 148 156 179 201 184 172 166 155 162 192 233 325 347 13 32 40 51 56 64 64 55 55 44 34
335 337 343 2 13 14 20 31 39 58 89 103 112 116 130 167 172 162 160 143 101 98 109 99 82 73 70 67 104 120 119 125 131 132 131 127 125 120 114 112 109 113 119 114 121 123 131 140 29 351 10 131 21 342 266 291 310 306 0 336 235 187 173 161 154 155 177 195 191 190 184 169 176 195 225 271 349 34 47 57 70 78 75 63 58 58 50 42
333 335 338 1 12 8 15 28 39 57 81 106 119 149 163 171 184 193 184 174 128 110 126 114 100 94 87 70 94 113 116 123 126 130 135 130 124 118 108 107 110 123 127 109 109 116 249 259 340 28 66 333 29 14 346 342 315 326 16 18 181 167 154 149 156 173 183 186 178 186 191 179 185 190 200 232 30 52 59 69 74 88 89 72 58 50 45 44
322 332 340 355 7 3 4 14 38 66 73 99 150 169 170 180 209 221 214 204 181 151 154 129 117 114 102 82 88 108 118 126 124 126 134 131 127 126 117 112 109 114 120 101 77 301 277 276 299 85 104 6 353 331 334 334 311 346 24 121 164 158 147 150 178 188 189 198 175 184 189 178 184 185 189 225 206 70 67 100 81 94 104 96 77 47 40 47
306 323 337 347 4 2 355 357 19 82 67 53 210 187 189 213 216 212 234 206 171 177 182 144 119 111 106 101 107 114 114 123 129 128 128 129 131 135 138 139 119 68 95 236 265 268 273 282 294 178 155 339 314 293 307 324 352 28 60 136 148 143 145 153 177 186 204 228 177 179 178 169 178 184 194 222 210 126 70 176 136 123 119 113 117 74 46 48
292 307 325 345 354 357 354 349 355 55 59 6 251 207 207 221 207 207 217 157 153 167 169 144 114 105 108 118 151 143 118 114 128 135 136 138 138 139 136 129 139 344 314 267 272 270 263 221 99 132 181 266 258 253 286 309 34 68 104 130 130 131 143 137 106 178 214 241 184 171 162 163 173 186 199 211 211 213 235 229 186 157 141 150 190 81 53 43
280 292 305 331 333 344 357 348 3 10 349 282 241 213 202 204 198 201 205 174 153 150 155 146 123 110 106 126 170 178 155 116 118 136 141 143 143 147 139 115 230 287 339 291 285 276 245 132 104 121 141 210 251 277 297 289 67 75 93 103 105 123 131 94 78 173 205 201 176 164 148 158 181 195 202 201 207 221 246 252 179 164 169 189 210 214 114 32
270 278 287 305 314 316 321 349 18 358 244 205 238 216 182 186 193 193 211 217 157 155 162 162 151 139 147 192 161 165 183 141 132 147 128 132 150 147 154 176 238 257 289 297 286 268 220 163 114 73 143 239 261 273 287 235 103 67 53 50 56 89 80 44 79 179 178 159 175 182 148 152 185 199 205 206 209 219 244 252 228 186 179 200 216 220 234 297
263 269 276 283 300 293 279 339 21 9 191 157 288 212 174 171 185 190 208 294 203 175 171 173 179 161 160 186 162 155 184 169 143 153 135 151 190 194 193 207 242 254 283 303 271 217 199 199 208 314 245 235 237 238 262 245 209 77 38 24 24 79 69 11 2 189 177 164 189 211 206 166 180 196 205 211 213 220 238 247 248 248 222 222 223 221 254 311
256 265 268 268 285 282 277 282 27 14 23 333 273 223 246 196 164 183 191 324 254 174 168 178 182 157 152 169 172 170 189 187 157 157 175 206 214 224 215 215 240 248 291 315 218 187 198 223 234 220 206 139 173 242 44 300 299 321 341 356 359 20 44 22 335 236 224 215 198 207 211 180 180 195 205 213 217 223 236 244 254 269 290 299 246 233 277 333
251 257 264 264 265 262 272 266 210 199 29 278 265 254 264 186 159 181 179 1 160 160 164 176 174 160 159 166 172 169 172 193 181 159 164 205 224 225 219 206 215 231 315 318 247 217 213 229 234 223 223 211 200 290 316 306 313 314 308 319 309 314 345 340 302 278 287 277 193 198 213 201 180 193 200 211 221 229 237 246 256 266 283 288 263 264 267 305
249 248 258 261 263 256 254 245 223 209 178 266 264 246 230 153 155 179 199 348 175 173 171 175 175 172 172 180 193 181 161 184 193 178 182 223 224 219 222 205 209 238 297 287 227 198 201 212 214 221 235 239 238 276 298 299 314 331 323 299 286 303 311 311 288 262 267 271 225 206 213 215 183 192 195 203 221 235 240 241 247 257 265 267 260 258 263 287
249 246 249 254 262 262 248 225 215 209 208 250 241 212 173 151 165 181 195 238 189 185 186 184 182 176 176 188 199 188 178 181 191 202 208 226 216 214 227 229 228 248 230 211 222 216 203 199 210 242 243 234 241 256 263 267 71 8 344 311 303 322 305 297 268 246 254 263 261 238 219 222 205 195 202 211 228 244 240 231 235 248 253 255 258 261 273 290
249 246 245 247 255 256 251 231 219 217 224 230 217 195 175 165 175 180 188 223 216 199 201 195 189 190 196 204 200 194 193 192 198 216 212 198 207 221 237 227 212 217 208 204 214 215 203 203 230 256 233 223 244 245 203 183 179 331 345 342 331 339 329 327 252 221 235 255 304 339 233 220 214 206 215 229 237 239 239 239 248 257 255 254 260 269 280 289
249 246 245 245 248 251 249 236 225 222 223 220 206 189 182 180 196 204 201 198 211 221 215 200 193 200 217 229 208 199 196 195 205 223 227 212 213 234 237 217 206 223 223 206 208 213 214 223 244 259 235 216 235 224 178 175 247 307 332 355 357 358 3 5 333 208 240 255 323 358 239 212 222 227 230 236 230 226 235 246 257 269 269 257 255 266 276 285
249 246 246 244 244 249 249 237 228 223 218 212 204 194 190 192 212 214 206 194 284 286 249 205 195 195 207 212 205 204 204 200 205 217 226 230 234 235 221 211 218 239 232 215 219 218 211 219 231 240 223 200 199 175 157 134 341 266 282 327 3 58 62 345 293 327 278 269 315 341 225 204 232 234 226 223 220 222 231 238 246 261 265 249 248 260 271 285
251 247 245 245 243 245 247 239 231 225 218 213 213 207 203 209 220 218 219 290 311 302 264 216 196 186 197 197 188 201 211 212 207 210 217 225 234 229 220 220 224 232 231 230 237 228 209 205 209 205 191 179 168 155 145 16 340 254 262 274 259 233 159 214 233 232 250 286 318 328 232 217 250 230 211 208 211 218 227 229 230 232 232 235 246 260 272 290
253 248 244 245 244 242 246 243 233 226 222 218 216 215 218 222 218 179 344 344 335 330 246 205 186 182 203 209 205 210 222 222 211 209 214 218 226 228 229 231 222 224 232 232 225 218 212 202 198 198 192 187 175 166 323 340 315 246 235 243 261 273 187 186 202 232 271 304 319 347 131 176 205 196 191 201 209 217 219 215 215 220 225 235 249 261 276 296
252 250 246 243 243 241 242 242 236 231 225 220 222 226 231 230 217 203 3 349 341 353 151 180 177 186 204 213 228 232 237 234 210 206 212 215 229 242 240 240 233 230 230 222 182 156 187 183 179 187 195 205 206 206 303 333 319 239 227 245 290 274 276 290 230 237 305 333 311 139 131 145 162 157 175 199 207 209 206 205 210 220 228 237 248 260 279 295
252 251 246 242 242 241 242 240 234 234 228 224 229 233 237 234 224 240 316 335 330 327 331 167 183 205 208 214 233 234 236 231 202 203 211 214 231 243 240 246 253 247 231 216 183 140 148 163 176 187 195 203 211 236 275 321 17 249 234 273 311 273 278 276 241 320 37 51 253 193 173 170 167 157 167 190 200 199 198 202 210 219 228 236 245 258 275 285
250 250 247 242 240 236 237 238 235 236 230 228 235 237 238 236 225 242 285 313 320 300 292 310 214 220 225 239 252 258 250 221 197 207 220 218 229 237 229 232 243 238 217 207 195 160 152 164 186 198 203 201 202 230 262 249 89 91 217 280 306 268 254 231 201 56 80 309 303 205 188 191 192 184 180 189 198 199 196 201 210 221 230 236 245 257 271 288
246 246 244 242 241 235 231 232 234 236 230 230 238 240 243 239 225 235 285 305 311 295 279 293 292 264 268 286 309 325 286 221 200 212 224 220 222 219 214 213 199 190 193 197 195 172 168 175 185 196 209 209 208 227 247 229 196 181 174 240 276 302 299 252 201 173 181 230 282 184 190 211 209 206 203 202 204 204 204 208 217 228 237 244 254 262 275 294
238 236 235 233 232 232 230 230 231 233 231 233 239 243 246 235 214 193 22 315 292 289 278 277 278 271 275 283 296 341 330 250 217 222 222 217 217 207 205 209 201 189 188 197 198 179 181 188 170 172 188 192 189 216 245 239 215 192 186 226 243 244 320 263 226 217 206 184 173 165 220 240 222 219 224 225 221 221 224 229 234 241 248 256 261 264 277 291
228 222 231 236 229 219 214 218 221 226 231 233 238 243 243 232 216 202 215 294 286 286 280 275 268 268 278 282 274 309 340 315 249 236 225 215 211 200 191 194 204 206 198 200 203 191 184 180 166 169 178 175 145 71 328 227 212 207 208 222 229 241 281 255 228 232 223 189 163 169 240 264 239 226 230 236 238 239 243 247 250 253 258 262 263 267 277 284
219 210 224 239 242 236 223 217 215 222 231 233 237 241 238 232 229 225 237 286 276 270 276 279 266 260 271 281 278 286 308 324 327 312 252 217 212 210 194 186 200 211 206 201 200 196 193 187 186 197 194 177 168 49 344 205 213 224 231 235 242 255 268 263 242 232 224 211 197 187 245 277 259 238 236 238 243 249 254 257 258 255 254 259 265 271 276 282
216 203 214 231 243 250 244 229 220 226 235 236 237 238 234 231 229 227 253 281 273 266 271 285 273 258 266 277 272 271 288 333 24 59 99 182 194 197 194 189 196 204 204 203 199 195 199 195 192 208 214 206 215 243 256 233 238 242 245 256 261 262 269 267 252 240 225 215 216 191 219 270 269 262 254 240 238 245 248 248 247 245 248 259 269 273 277 284
211 199 207 220 232 240 244 241 235 235 229 215 216 218 218 227 230 234 266 272 258 251 256 272 270 263 273 276 266 264 271 282 104 116 120 157 161 154 167 179 184 191 196 200 199 194 193 193 193 201 217 224 232 242 246 239 236 236 244 258 263 268 266 248 241 243 236 247 256 233 240 274 277 270 252 231 229 236 237 235 237 241 250 261 268 271 277 287
211 198 199 210 224 232 236 243 245 234 218 209 214 209 202 218 232 240 252 251 239 238 243 251 257 267 280 271 264 265 260 262 253 135 138 171 164 152 162 173 180 193 196 187 194 204 210 214 213 206 198 214 236 245 251 248 237 236 242 237 245 275 276 251 242 236 233 251 253 244 262 280 277 261 244 229 228 233 232 234 239 244 252 260 264 269 278 289
212 203 198 204 218 217 195 199 224 225 224 233 238 222 208 217 227 227 230 233 239 241 241 246 249 255 267 260 258 256 242 252 252 181 164 200 208 203 210 210 211 226 234 221 219 230 235 234 232 229 229 236 245 251 254 251 241 239 243 237 240 266 279 267 253 244 249 255 248 249 264 269 258 249 248 246 242 238 237 240 245 248 255 260 262 268 278 288
216 211 199 197 206 196 181 187 207 212 219 240 242 229 231 238 232 223 223 229 242 245 242 246 246 246 257 259 257 260 246 249 254 235 228 249 238 224 220 221 227 244 261 255 236 231 238 236 233 236 242 245 247 247 243 242 245 253 263 267 265 268 273 271 264 262 267 261 250 256 260 255 249 248 251 254 252 248 246 246 248 251 256 259 261 266 275 286
220 219 207 199 199 192 189 197 207 207 206 219 225 226 240 237 227 243 245 228 235 241 242 250 248 246 252 254 255 269 270 258 254 248 248 261 251 226 213 213 223 244 261 244 219 218 235 238 234 238 243 242 241 238 237 242 252 261 266 270 271 268 268 271 275 279 275 263 263 273 266 257 262 267 267 268 270 266 257 248 247 250 252 254 258 261 272 289
222 224 217 211 207 198 195 200 208 211 210 214 219 221 232 229 225 244 254 231 223 233 252 264 259 250 249 249 256 269 275 270 264 256 251 245 216 207 204 202 204 203 224 234 220 227 252 260 258 250 245 244 244 245 247 248 253 259 261 265 272 270 264 265 272 282 284 280 284 286 273 267 273 277 273 269 270 266 254 244 244 246 246 249 254 262 280 299
225 223 220 218 216 209 204 204 208 210 210 216 218 212 214 221 228 236 234 226 222 225 251 264 270 269 254 243 248 260 266 266 262 257 253 241 209 199 197 199 204 194 187 209 237 259 274 278 269 250 245 246 246 247 249 251 257 264 262 261 268 267 261 262 268 275 281 284 286 282 271 271 276 275 269 262 257 251 243 241 242 241 241 246 254 271 294 307
228 223 221 221 221 219 217 215 212 209 207 211 214 209 201 204 218 230 225 220 220 221 245 258 264 272 260 245 243 247 252 257 256 253 252 250 246 235 220 214 216 204 198 209 229 245 264 261 240 234 236 239 240 245 250 253 261 266 261 258 262 260 260 265 269 271 270 269 271 273 270 273 279 279 275 269 257 244 238 238 239 237 240 250 265 286 303 310
229 225 223 222 223 224 227 226 221 216 214 210 207 205 203 200 203 221 228 218 213 222 247 264 262 259 249 246 247 242 240 249 254 252 250 251 252 246 235 227 223 206 194 199 218 235 261 256 233 222 227 237 241 247 256 265 270 266 256 253 259 262 264 266 266 270 271 266 263 266 267 270 278 282 279 276 264 248 242 241 240 242 251 267 284 299 306 307
Height
3189 3188 3187 3185 3184 3183 3181 3180 3179 3177 3176 3175 3174 3173 3173 3172 3172 3172 3172 3172 3172 3172 3172 3173 3174 3174 3175 3176 3176 3177 3177 3178 3178 3179 3180 3180 3181 3182 3183 3184 3184 3185 3186 3186 3187 3188 3188 3189 3189 3189 3189 3189 3190 3191 3192 3192 3193 3193 3194 3194 3194 3195 3195 3195 3196 3196 3194 3194 3194 3194 3194 3194 3196 3197 3197 3198 3198 3197 3197 3198 3198 3198 3198 3198 3198 3198 3198 3198
3187 3186 3185 3184 3182 3181 3180 3178 3177 3176 3174 3173 3172 3172 3171 3170 3170 3170 3170 3170 3170 3170 3170 3170 3171 3172 3173 3174 3174 3175 3176 3176 3177 3178 3179 3179 3180 3181 3182 3183 3183 3184 3185 3185 3186 3187 3188 3189 3189 3189 3188 3188 3189 3191 3192 3192 3193 3193 3195 3195 3195 3196 3196 3196 3197 3196 3194 3193 3195 3194 3194 3195 3197 3198 3198 3199 3199 3198 3198 3198 3198 3198 3198 3199 3199 3199 3198 3199
3186 3185 3183 3182 3181 3180 3178 3177 3176 3174 3173 3172 3171 3170 3170 3169 3169 3168 3168 3168 3167 3167 3167 3168 3169 3170 3171 3172 3173 3174 3175 3175 3176 3178 3178 3178 3179 3180 3181 3182 3183 3183 3184 3185 3186 3186 3188 3189 3189 3189 3188 3188 3189 3191 3191 3192 3193 3193 3195 3196 3196 3196 3196 3196 3197 3196 3194 3193 3195 3194 3194 3195 3197 3199 3199 3199 3199 3198 3198 3198 3198 3198 3199 3199 3199 3198 3199 3199
3185 3183 3182 3181 3180 3179 3177 3176 3175 3173 3172 3171 3170 3169 3169 3168 3168 3167 3167 3166 3166 3165 3165 3166 3166 3167 3168 3170 3171 3172 3173 3174 3175 3176 3177 3178 3179 3179 3180 3181 3182 3183 3183 3184 3185 3186 3187 3189 3189 3188 3188 3189 3190 3190 3190 3191 3192 3193 3195 3195 3196 3195 3196 3196 3196 3195 3194 3194 3195 3195 3195 3195 3197 3198 3198 3199 3199 3199 3198 3198 3198 3198 3198 3199 3198 3198 3199 3200
3183 3182 3181 3180 3179 3178 3177 3175 3174 3172 3171 3170 3169 3169 3168 3167 3167 3166 3166 3165 3164 3164 3164 3164 3164 3165 3166 3168 3169 3170 3172 3173 3174 3175 3176 3177 3178 3179 3180 3181 3182 3182 3183 3183 3184 3185 3187 3188 3188 3188 3188 3189 3190 3190 3190 3191 3192 3194 3194 3195 3195 3195 3196 3196 3195 3194 3194 3195 3196 3197 3197 3197 3198 3198 3198 3198 3199 3199 3199 3198 3197 3198 3198 3198 3198 3198 3199 3199
3182 3181 3180 3179 3178 3177 3176 3174 3173 3172 3171 3170 3169 3168 3168 3167 3166 3166 3165 3164 3163 3163 3162 3162 3162 3163 3164 3166 3167 3169 3170 3171 3173 3174 3175 3176 3177 3178 3179 3180 3181 3182 3183 3183 3184 3185 3187 3187 3187 3188 3188 3188 3189 3191 3191 3191 3192 3194 3194 3194 3195 3195 3195 3196 3195 3194 3195 3196 3197 3198 3198 3198 3199 3199 3199 3198 3198 3199 3199 3198 3198 3197 3198 3198 3198 3198 3199 3199
3182 3181 3180 3178 3177 3176 3175 3173 3172 3171 3170 3169 3169 3168 3167 3167 3166 3165 3164 3163 3162 3161 3161 3160 3161 3161 3163 3164 3165 3167 3169 3170 3172 3173 3174 3175 3176 3177 3179 3180 3181 3182 3183 3183 3184 3186 3186 3186 3187 3187 3187 3188 3189 3191 3191 3192 3192 3193 3193 3194 3195 3195 3195 3195 3195 3195 3196 3197 3198 3198 3198 3199 3199 3199 3199 3199 3198 3199 3199 3198 3198 3198 3198 3199 3199 3200 3200 3200
3181 3180 3179 3178 3177 3175 3174 3172 3171 3170 3169 3169 3168 3168 3167 3167 3166 3165 3164 3162 3161 3160 3159 3159 3159 3160 3161 3162 3163 3165 3167 3169 3171 3172 3173 3174 3175 3177 3178 3179 3180 3182 3183 3184 3185 3185 3186 3186 3186 3186 3186 3187 3189 3190 3191 3191 3192 3192 3193 3194 3194 3195 3195 3195 3195 3195 3196 3197 3197 3198 3198 3198 3199 3199 3199 3199 3199 3200 3200 3199 3199 3198 3198 3199 3199 3200 3200 3200
3180 3179 3178 3177 3176 3175 3173 3172 3171 3170 3169 3169 3168 3168 3167 3167 3166 3165 3163 3162 3160 3159 3158 3158 3158 3159 3160 3161 3163 3164 3166 3168 3170 3171 3173 3174 3175 3176 3178 3179 3180 3181 3182 3184 3185 3185 3186 3186 3186 3186 3185 3187 3188 3189 3190 3191 3191 3192 3193 3194 3194 3195 3195 3195 3195 3195 3196 3196 3197 3198 3198 3198 3198 3198 3198 3199 3199 3199 3199 3199 3199 3198 3198 3198 3198 3199 3200 3201
3180 3179 3178 3177 3176 3174 3173 3171 3170 3169 3169 3168 3168 3168 3167 3167 3166 3165 3163 3162 3160 3159 3158 3158 3158 3159 3160 3161 3163 3164 3166 3167 3168 3170 3172 3173 3174 3176 3177 3179 3180 3181 3182 3183 3184 3184 3185 3185 3185 3185 3185 3186 3188 3189 3189 3191 3192 3193 3193 3194 3194 3194 3194 3195 3195 3196 3196 3196 3197 3197 3197 3198 3198 3198 3198 3199 3199 3199 3199 3198 3198 3198 3198 3198 3198 3199 3200 3200
3179 3178 3177 3176 3175 3174 3172 3171 3170 3169 3169 3168 3168 3168 3167 3167 3166 3165 3164 3162 3161 3160 3159 3159 3159 3159 3160 3162 3163 3164 3165 3166 3167 3168 3171 3172 3174 3175 3177 3178 3180 3181 3182 3183 3183 3183 3183 3184 3184 3185 3185 3186 3187 3188 3189 3191 3192 3193 3193 3193 3194 3193 3194 3195 3195 3196 3195 3196 3196 3196 3196 3198 3198 3198 3198 3199 3199 3199 3199 3198 3198 3198 3198 3198 3198 3199 3199 3199
3179 3178 3177 3176 3175 3173 3172 3171 3170 3169 3168 3168 3168 3168 3167 3167 3166 3165 3164 3163 3162 3161 3160 3160 3160 3161 3161 3162 3163 3163 3164 3165 3166 3167 3169 3171 3173 3175 3176 3178 3180 3181 3182 3182 3182 3182 3183 3183 3183 3185 3186 3186 3187 3188 3189 3190 3191 3193 3192 3192 3192 3193 3194 3195 3195 3195 3195 3195 3195 3194 3195 3198 3199 3199 3199 3200 3200 3200 3199 3198 3198 3198 3198 3198 3198 3199 3199 3199
3178 3177 3176 3175 3174 3173 3171 3170 3169 3169 3168 3168 3168 3168 3167 3167 3167 3166 3165 3164 3163 3163 3162 3162 3162 3162 3162 3162 3162 3163 3164 3164 3165 3167 3169 3171 3173 3174 3176 3178 3179 3180 3181 3181 3182 3182 3182 3181 3182 3185 3186 3187 3188 3188 3188 3189 3190 3192 3192 3192 3192 3193 3194 3195 3195 3195 3195 3196 3195 3193 3195 3198 3199 3200 3200 3201 3201 3200 3199 3199 3198 3198 3198 3198 3198 3199 3199 3199
3177 3177 3176 3175 3174 3172 3171 3170 3169 3168 3168 3168 3168 3168 3168 3167 3167 3167 3166 3165 3165 3164 3164 3164 3163 3163 3163 3163 3163 3163 3163 3164 3165 3167 3169 3171 3173 3175 3176 3177 3179 3180 3180 3181 3182 3182 3181 3181 3183 3185 3186 3187 3188 3188 3188 3188 3189 3191 3192 3193 3193 3193 3193 3195 3195 3194 3194 3196 3195 3193 3195 3198 3199 3200 3201 3201 3201 3201 3201 3200 3199 3199 3199 3199 3198 3199 3199 3199
3177 3176 3175 3174 3173 3172 3171 3170 3169 3168 3168 3168 3168 3168 3168 3168 3167 3167 3167 3166 3166 3165 3165 3165 3165 3164 3164 3164 3164 3163 3164 3165 3166 3168 3170 3172 3173 3175 3175 3177 3178 3180 3181 3182 3182 3182 3181 3182 3183 3185 3187 3187 3188 3188 3188 3188 3189 3191 3192 3192 3193 3193 3193 3194 3195 3193 3193 3195 3195 3194 3195 3198 3199 3200 3201 3201 3201 3202 3201 3201 3200 3200 3200 3199 3199 3199 3199 3200
3176 3176 3175 3174 3173 3172 3171 3170 3169 3169 3168 3168 3168 3168 3168 3168 3168 3168 3167 3167 3166 3166 3166 3166 3166 3166 3166 3166 3166 3165 3165 3166 3167 3169 3170 3172 3173 3175 3175 3177 3179 3181 3182 3182 3182 3182 3183 3184 3185 3186 3187 3188 3188 3188 3188 3188 3188 3190 3191 3191 3192 3193 3194 3194 3195 3194 3193 3194 3195 3195 3195 3197 3199 3199 3200 3201 3201 3201 3201 3200 3200 3200 3200 3200 3200 3199 3200 3201
3176 3175 3174 3173 3173 3172 3171 3170 3169 3169 3168 3168 3168 3168 3168 3168 3168 3168 3167 3167 3167 3167 3167 3167 3167 3167 3168 3169 3168 3168 3168 3168 3169 3170 3172 3173 3173 3174 3175 3177 3180 3182 3182 3182 3183 3184 3185 3186 3186 3187 3187 3188 3188 3188 3188 3188 3188 3189 3189 3190 3191 3193 3194 3193 3194 3195 3195 3195 3196 3196 3195 3196 3198 3198 3199 3200 3201 3200 3200 3200 3199 3199 3199 3199 3199 3199 3199 3200
3175 3175 3174 3173 3172 3171 3171 3170 3169 3169 3168 3168 3168 3168 3168 3168 3168 3168 3167 3167 3168 3167 3167 3167 3167 3168 3169 3169 3170 3170 3170 3170 3171 3171 3173 3174 3174 3174 3174 3176 3180 3182 3183 3183 3184 3185 3185 3186 3187 3187 3187 3187 3187 3188 3188 3186 3186 3188 3188 3187 3187 3190 3193 3192 3192 3194 3195 3195 3195 3195 3196 3197 3198 3198 3198 3199 3199 3200 3199 3199 3199 3199 3199 3199 3199 3199 3199 3200
3175 3174 3173 3173 3172 3171 3170 3169 3169 3168 3168 3168 3168 3168 3168 3168 3168 3167 3167 3167 3168 3167 3167 3168 3168 3168 3169 3170 3171 3171 3171 3172 3172 3173 3173 3174 3175 3176 3176 3177 3179 3182 3183 3184 3184 3185 3186 3186 3186 3187 3187 3187 3187 3187 3187 3185 3185 3187 3187 3185 3183 3186 3190 3191 3191 3193 3195 3194 3194 3195 3195 3196 3197 3197 3197 3198 3199 3199 3199 3199 3199 3199 3199 3199 3199 3200 3200 3200
3174 3173 3173 3172 3171 3171 3170 3169 3169 3168 3168 3168 3167 3167 3167 3168 3167 3167 3167 3167 3167 3168 3168 3168 3168 3168 3168 3170 3172 3171 3172 3173 3173 3174 3174 3175 3175 3177 3178 3179 3179 3181 3182 3184 3185 3185 3186 3186 3186 3186 3187 3187 3186 3186 3186 3185 3185 3186 3185 3184 3183 3186 3189 3189 3190 3193 3194 3193 3194 3194 3194 3195 3196 3197 3197 3198 3198 3199 3199 3199 3199 3199 3199 3199 3200 3200 3200 3201
3173 3173 3172 3172 3171 3170 3169 3169 3168 3168 3168 3167 3167 3167 3167 3167 3167 3167 3167 3167 3167 3167 3168 3168 3168 3168 3168 3169 3172 3172 3173 3173 3173 3174 3175 3175 3176 3177 3179 3179 3180 3181 3182 3184 3184 3185 3185 3185 3185 3186 3186 3186 3186 3186 3186 3186 3185 3184 3183 3184 3186 3187 3190 3191 3191 3192 3192 3192 3193 3193 3193 3195 3196 3197 3198 3198 3198 3199 3198 3198 3199 3199 3199 3199 3200 3200 3200 3201
3173 3172 3172 3171 3170 3170 3169 3168 3168 3168 3168 3167 3167 3167 3166 3166 3166 3167 3167 3166 3167 3167 3167 3168 3167 3168 3168 3169 3172 3173 3173 3174 3174 3175 3175 3176 3177 3178 3179 3179 3180 3181 3182 3183 3184 3185 3185 3184 3184 3185 3185 3186 3186 3186 3187 3187 3185 3183 3183 3185 3188 3190 3192 3193 3192 3192 3192 3192 3192 3193 3194 3195 3197 3198 3198 3198 3198 3198 3198 3198 3199 3199 3198 3199 3199 3200 3200 3201
3172 3172 3171 3170 3170 3169 3168 3168 3167 3167 3168 3167 3167 3166 3166 3166 3166 3166 3166 3166 3166 3166 3167 3168 3168 3168 3168 3169 3172 3174 3174 3175 3175 3176 3176 3177 3177 3178 3179 3179 3180 3181 3182 3183 3184 3185 3185 3184 3184 3184 3185 3185 3186 3186 3187 3186 3185 3184 3185 3187 3189 3191 3193 3193 3193 3193 3192 3192 3192 3194 3194 3195 3197 3198 3197 3197 3198 3198 3198 3198 3198 3198 3198 3198 3199 3199 3200 3201
3171 3171 3170 3170 3169 3168 3168 3167 3167 3167 3167 3166 3166 3166 3165 3165 3165 3166 3166 3166 3166 3166 3167 3167 3167 3168 3169 3170 3172 3173 3174 3174 3175 3177 3177 3177 3177 3178 3179 3179 3180 3180 3181 3182 3183 3184 3185 3184 3184 3184 3185 3185 3186 3185 3185 3186 3185 3186 3188 3189 3190 3190 3191 3192 3192 3192 3192 3192 3192 3193 3194 3196 3196 3197 3196 3196 3197 3196 3196 3197 3197 3198 3198 3198 3198 3199 3200 3200
3170 3170 3169 3169 3168 3168 3167 3167 3166 3166 3166 3166 3165 3165 3165 3164 3165 3165 3165 3165 3165 3166 3166 3167 3167 3167 3169 3171 3171 3172 3174 3173 3173 3176 3178 3178 3178 3178 3178 3179 3179 3179 3179 3181 3182 3183 3184 3184 3184 3185 3185 3185 3185 3185 3185 3185 3185 3186 3188 3189 3189 3190 3190 3190 3191 3191 3191 3192 3192 3192 3194 3196 3196 3196 3195 3194 3194 3195 3195 3196 3196 3197 3197 3198 3198 3199 3199 3200
3168 3168 3168 3168 3167 3167 3167 3166 3166 3166 3165 3165 3165 3164 3164 3164 3164 3165 3165 3165 3165 3165 3165 3166 3167 3167 3168 3170 3171 3172 3173 3173 3173 3174 3176 3177 3178 3178 3178 3178 3178 3178 3180 3181 3181 3181 3183 3184 3184 3184 3184 3184 3184 3184 3185 3185 3185 3186 3187 3188 3188 3189 3189 3189 3190 3190 3190 3190 3191 3190 3191 3195 3196 3195 3194 3193 3193 3193 3194 3195 3196 3196 3196 3197 3197 3198 3198 3199
3167 3167 3167 3167 3166 3166 3166 3165 3165 3165 3164 3164 3164 3164 3164 3164 3164 3164 3164 3165 3164 3163 3164 3165 3166 3167 3168 3170 3171 3171 3172 3173 3173 3174 3176 3177 3178 3178 3177 3178 3178 3178 3180 3181 3180 3181 3182 3182 3183 3183 3183 3183 3184 3184 3184 3185 3185 3185 3186 3187 3187 3187 3188 3188 3188 3189 3188 3188 3189 3189 3189 3191 3193 3193 3193 3193 3193 3193 3193 3194 3194 3195 3195 3195 3196 3196 3197 3197
3166 3166 3165 3165 3165 3165 3165 3165 3165 3164 3164 3164 3164 3164 3163 3163 3164 3164 3164 3165 3163 3162 3163 3164 3166 3167 3168 3170 3170 3170 3171 3172 3172 3174 3175 3176 3177 3177 3177 3177 3178 3178 3179 3179 3179 3180 3180 3181 3181 3182 3182 3183 3183 3184 3184 3185 3185 3185 3185 3185 3186 3186 3186 3186 3186 3187 3187 3187 3187 3188 3189 3190 3191 3192 3192 3192 3192 3192 3192 3192 3193 3193 3193 3194 3194 3195 3196 3196
3164 3164 3164 3164 3164 3164 3164 3164 3164 3163 3163 3163 3163 3163 3163 3163 3163 3164 3164 3164 3162 3162 3163 3164 3165 3167 3168 3169 3169 3169 3170 3171 3172 3173 3175 3176 3176 3176 3176 3177 3177 3177 3178 3178 3178 3179 3179 3180 3180 3181 3181 3182 3183 3183 3184 3184 3184 3184 3184 3184 3185 3185 3185 3185 3185 3185 3186 3186 3185 3186 3187 3188 3189 3189 3189 3190 3190 3189 3190 3191 3191 3192 3192 3193 3193 3194 3194 3195
3162 3162 3162 3162 3162 3163 3163 3163 3162 3162 3162 3162 3162 3163 3163 3162 3163 3164 3165 3163 3161 3161 3163 3163 3165 3166 3166 3167 3168 3169 3169 3170 3172 3173 3174 3175 3175 3175 3175 3176 3176 3176 3177 3177 3178 3178 3179 3179 3180 3180 3181 3181 3182 3183 3183 3184 3184 3184 3184 3184 3184 3184 3184 3184 3183 3184 3186 3184 3182 3183 3184 3184 3186 3186 3185 3185 3185 3186 3188 3190 3190 3191 3191 3191 3192 3192 3193 3193
3161 3161 3161 3161 3161 3161 3161 3161 3161 3161 3161 3162 3162 3162 3162 3162 3163 3163 3163 3162 3160 3161 3161 3162 3164 3165 3165 3166 3167 3167 3168 3170 3171 3172 3172 3173 3174 3174 3174 3175 3175 3175 3175 3176 3177 3178 3178 3179 3179 3179 3180 3180 3181 3182 3182 3182 3182 3183 3183 3183 3183 3183 3182 3182 3182 3183 3185 3183 3181 3182 3182 3181 3182 3182 3182 3182 3183 3185 3187 3188 3189 3190 3190 3190 3191 3191 3191 3192
3159 3159 3159 3160 3160 3160 3160 3160 3160 3160 3160 3160 3161 3161 3161 3161 3162 3161 3161 3160 3160 3159 3160 3160 3162 3163 3164 3165 3166 3166 3167 3169 3170 3170 3171 3172 3172 3173 3173 3173 3174 3174 3174 3175 3176 3177 3177 3178 3178 3179 3179 3179 3180 3180 3181 3181 3181 3182 3182 3182 3182 3182 3183 3184 3183 3184 3184 3182 3181 3182 3181 3181 3180 3179 3180 3181 3182 3184 3186 3188 3189 3189 3189 3189 3189 3190 3191 3191
3157 3157 3158 3158 3159 3159 3159 3159 3159 3159 3159 3159 3160 3160 3160 3161 3160 3159 3159 3160 3159 3159 3159 3160 3161 3162 3163 3164 3165 3165 3166 3168 3168 3169 3170 3170 3171 3171 3172 3172 3173 3173 3173 3174 3175 3176 3177 3177 3178 3178 3178 3178 3179 3179 3180 3181 3181 3181 3181 3181 3182 3183 3185 3187 3185 3184 3184 3181 3181 3182 3181 3180 3179 3178 3178 3179 3181 3184 3186 3187 3188 3188 3188 3188 3189 3189 3190 3190
3155 3156 3156 3156 3157 3157 3158 3158 3158 3158 3158 3158 3158 3159 3159 3159 3158 3158 3159 3160 3159 3158 3159 3159 3160 3161 3162 3163 3163 3164 3165 3166 3167 3168 3168 3168 3169 3170 3170 3170 3171 3171 3172 3173 3174 3174 3175 3175 3176 3177 3178 3178 3178 3179 3180 3181 3181 3180 3180 3180 3180 3181 3183 3185 3184 3184 3183 3181 3180 3180 3180 3179 3178 3178 3177 3179 3181 3184 3185 3186 3187 3187 3188 3188 3188 3189 3189 3189
3154 3154 3154 3155 3155 3156 3156 3156 3157 3157 3157 3157 3157 3157 3157 3157 3157 3157 3158 3159 3158 3157 3157 3158 3159 3160 3161 3162 3162 3163 3164 3164 3165 3166 3167 3166 3166 3167 3168 3168 3169 3169 3170 3171 3172 3173 3173 3173 3175 3177 3178 3178 3178 3179 3180 3180 3180 3180 3179 3179 3180 3180 3180 3182 3182 3182 3181 3180 3179 3179 3179 3179 3178 3177 3177 3178 3181 3182 3184 3185 3185 3186 3186 3186 3187 3187 3188 3188
3152 3152 3153 3153 3154 3154 3155 3155 3155 3155 3156 3156 3156 3155 3155 3156 3157 3157 3158 3158 3158 3157 3156 3157 3158 3159 3160 3160 3161 3162 3162 3163 3164 3164 3164 3165 3165 3165 3166 3166 3167 3167 3168 3170 3171 3171 3172 3173 3174 3176 3177 3177 3178 3178 3179 3179 3179 3179 3179 3179 3179 3179 3179 3180 3181 3181 3180 3180 3180 3179 3179 3179 3179 3178 3178 3178 3180 3181 3182 3183 3184 3184 3184 3185 3185 3186 3186 3186
3150 3150 3151 3151 3152 3152 3153 3153 3153 3154 3154 3154 3154 3153 3154 3155 3156 3156 3157 3157 3157 3157 3156 3156 3157 3158 3158 3159 3160 3160 3161 3161 3162 3162 3162 3163 3163 3162 3163 3164 3164 3165 3167 3168 3169 3169 3170 3172 3174 3175 3175 3176 3177 3178 3178 3178 3178 3178 3178 3178 3178 3178 3179 3179 3180 3180 3180 3181 3180 3179 3178 3178 3178 3178 3178 3178 3179 3180 3181 3182 3182 3182 3182 3182 3183 3184 3185 3184
3148 3148 3149 3149 3150 3151 3151 3151 3151 3152 3153 3153 3152 3152 3153 3154 3155 3156 3155 3154 3155 3156 3156 3156 3156 3157 3157 3158 3158 3158 3159 3159 3159 3160 3160 3161 3160 3160 3161 3162 3162 3162 3165 3167 3167 3167 3169 3171 3172 3174 3174 3175 3176 3177 3177 3177 3177 3177 3177 3178 3177 3177 3177 3177 3178 3179 3180 3181 3180 3179 3178 3177 3176 3176 3175 3176 3176 3177 3178 3179 3179 3179 3180 3181 3182 3182 3182 3182
3146 3146 3147 3147 3148 3149 3149 3149 3150 3150 3151 3151 3150 3151 3152 3153 3154 3155 3154 3153 3154 3154 3155 3155 3155 3156 3156 3156 3157 3157 3156 3156 3157 3157 3157 3158 3158 3158 3159 3160 3161 3161 3163 3164 3165 3166 3167 3169 3171 3173 3174 3175 3175 3175 3176 3176 3176 3176 3177 3177 3177 3177 3177 3177 3177 3177 3178 3180 3179 3179 3179 3176 3174 3174 3174 3174 3175 3175 3176 3176 3177 3177 3178 3179 3180 3180 3181 3181
3144 3144 3144 3145 3146 3146 3147 3148 3148 3148 3149 3149 3149 3150 3151 3152 3153 3154 3154 3154 3153 3153 3153 3154 3155 3155 3155 3156 3157 3156 3156 3156 3157 3156 3155 3156 3156 3157 3157 3159 3160 3160 3162 3163 3163 3164 3166 3167 3170 3171 3173 3174 3174 3174 3175 3175 3175 3175 3176 3176 3176 3176 3176 3176 3176 3175 3176 3177 3178 3179 3178 3174 3172 3174 3174 3174 3175 3175 3175 3175 3176 3176 3177 3178 3178 3178 3179 3180
3142 3142 3142 3143 3143 3144 3145 3145 3146 3146 3147 3148 3148 3148 3150 3150 3151 3151 3152 3153 3153 3153 3152 3153 3153 3154 3154 3155 3156 3156 3156 3155 3156 3155 3154 3154 3155 3155 3155 3156 3158 3159 3160 3161 3162 3163 3165 3166 3169 3170 3172 3172 3172 3172 3173 3173 3174 3174 3175 3175 3175 3175 3176 3176 3176 3174 3174 3174 3175 3177 3176 3172 3171 3172 3173 3173 3174 3174 3174 3174 3174 3175 3175 3176 3176 3177 3178 3178
3139 3140 3140 3141 3141 3142 3143 3143 3144 3144 3145 3146 3147 3147 3148 3149 3149 3150 3151 3152 3153 3153 3152 3152 3152 3153 3153 3153 3154 3155 3155 3155 3154 3153 3152 3152 3153 3153 3154 3155 3156 3157 3159 3160 3161 3162 3163 3165 3167 3169 3170 3171 3171 3171 3172 3172 3173 3174 3174 3174 3174 3174 3174 3174 3174 3173 3173 3173 3173 3174 3173 3170 3170 3171 3171 3172 3173 3173 3173 3172 3173 3173 3174 3174 3175 3175 3176 3176
3137 3138 3138 3139 3139 3140 3142 3142 3142 3143 3143 3144 3145 3145 3146 3146 3147 3149 3150 3150 3151 3152 3152 3152 3152 3152 3152 3152 3153 3153 3154 3154 3153 3152 3151 3151 3151 3152 3153 3154 3155 3156 3157 3159 3159 3161 3162 3163 3165 3167 3168 3169 3170 3170 3171 3171 3172 3172 3173 3173 3173 3173 3172 3172 3172 3171 3171 3171 3171 3172 3171 3168 3169 3170 3170 3170 3171 3171 3171 3170 3170 3171 3172 3173 3173 3173 3173 3173
3135 3136 3137 3138 3137 3138 3139 3140 3141 3141 3142 3142 3142 3142 3143 3144 3144 3146 3147 3148 3149 3150 3150 3151 3151 3151 3151 3151 3151 3152 3152 3153 3153 3152 3151 3151 3151 3152 3153 3154 3154 3155 3156 3157 3158 3159 3161 3163 3164 3166 3167 3168 3169 3169 3169 3170 3170 3171 3171 3172 3172 3171 3171 3170 3170 3170 3169 3169 3169 3169 3168 3166 3167 3168 3168 3169 3169 3170 3169 3168 3169 3169 3170 3171 3171 3171 3171 3171
3133 3134 3135 3135 3134 3135 3138 3139 3139 3140 3140 3140 3140 3140 3141 3142 3143 3144 3145 3146 3147 3148 3148 3149 3149 3149 3149 3149 3149 3150 3150 3151 3152 3152 3151 3151 3152 3152 3153 3154 3155 3155 3156 3157 3158 3159 3161 3162 3163 3164 3166 3167 3168 3168 3168 3168 3169 3169 3169 3170 3170 3170 3169 3169 3168 3167 3167 3166 3166 3166 3166 3165 3166 3165 3166 3167 3167 3167 3167 3167 3167 3168 3168 3168 3168 3168 3169 3169
3131 3131 3131 3132 3132 3134 3136 3136 3137 3137 3137 3137 3137 3138 3139 3140 3141 3142 3143 3144 3145 3146 3146 3147 3147 3147 3147 3147 3148 3148 3148 3149 3150 3151 3151 3151 3152 3152 3153 3154 3154 3154 3155 3156 3157 3158 3160 3161 3162 3163 3163 3164 3165 3166 3166 3167 3167 3167 3167 3168 3168 3168 3168 3168 3167 3165 3165 3164 3163 3163 3164 3164 3164 3164 3164 3164 3164 3164 3164 3164 3164 3165 3166 3166 3166 3167 3167 3167
3128 3127 3129 3130 3131 3132 3133 3133 3133 3134 3135 3136 3136 3137 3138 3139 3140 3141 3141 3143 3144 3144 3145 3145 3145 3145 3146 3146 3146 3147 3147 3147 3148 3149 3150 3150 3150 3151 3152 3153 3153 3154 3154 3155 3156 3157 3158 3159 3160 3161 3162 3162 3163 3164 3165 3165 3165 3165 3165 3165 3166 3166 3166 3165 3164 3163 3164 3162 3159 3160 3162 3162 3161 3162 3162 3161 3161 3161 3161 3161 3162 3163 3163 3164 3164 3165 3165 3165
3125 3126 3128 3129 3129 3129 3130 3130 3131 3132 3133 3134 3135 3135 3136 3137 3139 3140 3140 3141 3142 3143 3143 3143 3143 3144 3144 3145 3145 3145 3145 3145 3145 3147 3148 3148 3148 3149 3150 3151 3152 3152 3152 3153 3154 3155 3156 3157 3158 3160 3160 3161 3161 3162 3162 3163 3162 3162 3163 3163 3163 3164 3163 3163 3162 3161 3161 3159 3157 3158 3159 3157 3158 3159 3159 3159 3159 3158 3159 3159 3160 3161 3161 3162 3163 3163 3164 3164
3124 3125 3126 3127 3127 3127 3127 3128 3129 3130 3131 3133 3134 3135 3136 3136 3137 3138 3139 3139 3140 3141 3141 3141 3142 3142 3143 3143 3143 3143 3143 3143 3144 3144 3145 3146 3147 3147 3148 3148 3149 3150 3150 3151 3152 3153 3154 3155 3156 3158 3158 3159 3159 3160 3160 3160 3160 3160 3160 3161 3161 3161 3160 3160 3159 3159 3158 3156 3155 3156 3155 3154 3155 3156 3156 3157 3157 3157 3157 3157 3158 3158 3159 3160 3161 3161 3162 3161
3121 3123 3124 3124 3124 3125 3125 3126 3127 3129 3131 3132 3132 3132 3133 3134 3135 3136 3137 3137 3138 3139 3140 3140 3141 3141 3141 3141 3141 3140 3140 3140 3141 3142 3143 3144 3146 3146 3147 3147 3148 3149 3149 3150 3151 3151 3152 3154 3154 3155 3156 3157 3157 3157 3158 3158 3158 3157 3157 3158 3159 3158 3157 3157 3157 3156 3155 3153 3153 3153 3151 3150 3152 3152 3153 3154 3154 3154 3154 3155 3155 3156 3157 3158 3159 3159 3159 3158
3119 3120 3121 3121 3122 3123 3124 3125 3126 3127 3129 3129 3129 3129 3130 3131 3132 3132 3133 3135 3136 3137 3138 3138 3139 3139 3139 3139 3138 3138 3138 3138 3138 3139 3141 3143 3144 3145 3146 3146 3146 3147 3148 3148 3149 3150 3151 3152 3152 3153 3154 3154 3155 3156 3156 3156 3155 3154 3154 3156 3156 3156 3155 3155 3155 3154 3153 3152 3151 3150 3148 3148 3148 3149 3150 3150 3150 3151 3151 3152 3153 3154 3155 3156 3157 3157 3156 3154
3116 3117 3117 3117 3119 3121 3122 3123 3124 3125 3126 3126 3126 3127 3127 3127 3128 3128 3129 3131 3134 3136 3136 3137 3136 3136 3137 3136 3135 3136 3137 3137 3137 3138 3139 3141 3142 3143 3144 3144 3144 3145 3146 3146 3147 3148 3149 3150 3151 3152 3152 3153 3154 3155 3154 3154 3153 3152 3151 3153 3154 3153 3153 3153 3152 3151 3150 3149 3148 3147 3146 3145 3146 3147 3147 3148 3148 3149 3150 3151 3152 3153 3154 3154 3154 3153 3152 3151